Current weather by "City, St" or "zip code"  
 
Advertise Here

Current Conditions: Columbus Air Force Base, MS

Fair


86.0 F

Last Updated on Aug 4 2020, 3:56 pm CDT
Humidity: 57%
Wind Speed: N 17.3 mph
Barometer 29.94 in
Dewpoint: 68.7 F
Visibility: 10.00 mi
Precip: --
Heat Index: 90 F
Wind Chill: NA
Current conditions at:

Columbus Air Force Base, MS (KCBM)

Lat: 33.65 Lon: 88.45

Local Radar Image active severe weather and emergency alerts image image weather storm and storm spotter reports image weather observation monitoring service image
Local
Radar
Active
Alerts
Storm Reports Obs
Monitoring

Sign-up For Email & Text Message Weather Alert Notification Services


Advertise Here

Observation History for Columbus Air Force Base, MS


Time Wind
(mph)
Vis
(mi)
Weather Precip (in) Temperature (F) Relative
Humidity
Wind
Chill
(F)
Heat
Index
(F)
Pressure
Air Dwpt altimeter
(in)
sea level
(mb)
Rmks
3:56 pm CDT N 17.3 10.00 Fair -- 86.0 68.7 57% NA 90 29.94 1013.9
2:56 pm CDT N 0.0 10.00 A Few Clouds -- 89.0 65.8 47% NA 92 29.94 1013.9
1:56 pm CDT N 0.0 10.00 A Few Clouds -- 87.0 69.1 55% NA 91 29.96 1014.6
12:56 pm CDT N 0.0 10.00 Fair -- 87.0 69.3 56% NA 91 29.97 1014.9
11:56 am CDT N 0.0 10.00 A Few Clouds -- 86.0 70.2 60% NA 91 29.98 1015.3
10:56 am CDT W 3.5 10.00 A Few Clouds -- 85.0 70.7 62% NA 90 29.98 1015.3
9:56 am CDT N 0.0 10.00 Fair -- 82.0 70.3 67% NA 86 29.98 1015.3
8:56 am CDT N 0.0 10.00 Fair -- 78.0 70.3 77% NA NA 29.98 1015.3
7:56 am CDT N 0.0 10.00 Fair -- 74.0 69.6 86% NA NA 29.96 1014.6
6:56 am CDT N 0.0 10.00 A Few Clouds -- 70.0 68.5 96% NA NA 29.95 1014.3
5:56 am CDT N 0.0 10.00 Fair -- 69.0 68.2 96% NA NA 29.94 1013.9
4:56 am CDT N 0.0 10.00 Mostly Cloudy -- 69.0 68.0 96% NA NA 29.94 1013.9
3:56 am CDT N 0.0 10.00 A Few Clouds -- 70.0 68.7 96% NA NA 29.93 1013.6
2:56 am CDT N 0.0 10.00 Fair -- 70.0 68.5 95% NA NA 29.92 1013.3
1:56 am CDT N 0.0 10.00 Fair -- 71.0 69.3 94% NA NA 29.91 1012.9
12:56 am CDT N 0.0 10.00 Fair -- 72.0 69.4 93% NA NA 29.93 1013.6
11:56 pm CDT N 0.0 10.00 Fair -- 73.0 70.0 90% NA NA 29.94 1013.9
10:56 pm CDT N 0.0 10.00 Fair -- 74.0 70.5 88% NA NA 29.94 1013.9
9:56 pm CDT N 0.0 10.00 Overcast -- 79.0 70.7 76% NA NA 29.93 1013.6
8:56 pm CDT NW 4.6 10.00 Overcast -- 79.0 71.2 77% NA NA 29.92 1013.3
7:56 pm CDT N 0.0 10.00 Fair -- 80.0 72.5 79% NA 84 29.92 1013.3
6:56 pm CDT N 0.0 10.00 Fair -- 88.0 68.2 52% NA 92 29.90 1012.6
5:56 pm CDT S 5.8 10.00 Fair -- 90.0 67.3 48% NA 94 29.90 1012.6
4:56 pm CDT W 4.6 10.00 Fair -- 90.0 66.4 46% NA 93 29.90 1012.6

Regional Weather Observation


Columbus Air Force Base, MS (KCBM)

Fair
86.0 F

Columbus/West Point/Starkville, Golden Triangle Regional Airport, MS (KGTR)

Light Rain
79.0 F

George M Bryan Airport, Starkville, MS (KSTF)

Mostly Cloudy
82.0 F

Tupelo, Tupelo Regional Airport, MS (KTUP)

A Few Clouds
85.0 F

Corinth, MS (KCRX)

Partly Cloudy
82.0 F

Oxford, University-Oxford Airport, MS (KUOX)

A Few Clouds
84.0 F